Location: Palau
(42.3086°N, 3.1507°E)
Time: 16:24:52
(UTC+00:00)

Daily predictions for brighter satellites

Satellite Brightness Start Highest point End
(mag) Time Altitude Azimuth Time Altitude Azimuth Time Altitude Azimuth
Sich 1 3.5 19:29:42 10° NNW 19:34:03 68° W 19:38:24 10° S
Cosmos 1666 Rocket 3.5 19:31:59 10° N 19:36:22 74° E 19:40:40 10° SSE
USA 267 3.4 19:31:46 10° SE 19:38:18 75° SW 19:44:52 10° NW
Cosmos 1151 Rocket 3.0 19:34:29 10° S 19:38:50 73° E 19:43:13 10° NNE
USA 307 3.0 19:40:20 10° NW 19:44:36 78° NE 19:48:53 10° SE
Cosmos 1500 3.6 19:41:50 10° N 19:45:26 44° ENE 19:49:00 10° SSE
Cosmos 773 Rocket 4.2 19:43:03 10° NNW 19:48:22 79° WSW 19:53:37 10° SSE
Cosmos 1782 2.9 19:44:25 10° S 19:48:24 84° W 19:52:24 10° N
Resurs 1-3 3.7 19:44:53 10° SSE 19:49:12 61° ENE 19:53:32 10° N
ERS-2 3.2 19:46:08 10° N 19:49:40 50° WNW 19:53:10 10° SSW
IRS-1A Rocket 4.4 19:44:39 10° SSE 19:50:27 76° ENE 19:56:22 10° N
OBJECT-B 1.8 19:52:57 10° S 19:56:06 48° W 19:59:16 10° NNW
Meteor 1-5 Rocket 4.4 19:51:31 10° N 19:56:41 48° ENE 20:01:46 10° SSE
USA 308 2.9 19:54:14 10° NW 19:58:32 83° SW 20:02:16 13° SE
SJ-6B 3.7 19:57:13 10° S 20:01:03 50° W 20:05:00 10° NNW
USA 186 3.8 19:59:41 10° SW 20:01:22 17° W 20:03:02 10° NW
Akebono 3.8 19:59:37 10° NNW 20:01:43 85° WSW 20:03:46 13° SSE
Cosmos 1538 Rocket 4.0 19:59:35 10° NNW 20:04:58 77° ENE 20:10:01 11° SSE
ISS -3.6 20:03:04 10° WSW 20:06:26 78° NNW 20:09:49 10° NE
OAO 3 Rocket 3.9 20:06:51 10° WSW 20:10:59 32° S 20:14:01 16° ESE
Cosmos 1709 Rocket 4.3 20:06:00 10° NNW 20:12:05 68° W 20:18:08 10° S
Meteor 1-11 Rocket 4.5 20:08:58 10° N 20:14:31 39° ENE 20:18:41 16° SE
SPOT 3 Rocket 3.6 20:12:39 13° SSE 20:17:14 65° ENE 20:22:20 10° N
Cosmos 2082 Rocket 2.3 20:11:47 10° NNW 20:17:23 64° ENE 20:21:44 17° SE
Cosmos 1943 Rocket 3.2 20:14:37 13° SSE 20:18:22 26° ESE 20:22:55 10° NE
Cosmos 1680 Rocket 4.4 20:13:44 10° N 20:18:36 35° ENE 20:22:04 17° ESE
Cosmos 1461 4.0 20:16:22 10° S 20:20:21 28° ESE 20:24:20 10° NE
CZ-4C R/B 3.5 20:14:46 10° NW 20:22:07 57° WSW 20:30:15 11° SSE
Cosmos 2074 Rocket 4.2 20:17:10 10° N 20:23:24 58° E 20:28:25 16° SSE
Cosmos 2184 Rocket 4.1 20:19:39 10° N 20:25:45 57° E 20:30:30 17° SSE
Cosmos 44 4.1 20:25:13 10° NNW 20:30:27 47° NE 20:33:48 20° ESE
Ariane Rocket 3.9 20:28:19 10° S 20:33:08 46° W 20:38:02 10° NNW
NOSS 3-4 (A) 3.9 20:26:19 10° NW 20:33:26 87° WSW 20:39:25 19° SSE
NOSS 3-4 (C) 3.9 20:26:25 10° NW 20:33:33 87° WSW 20:39:31 19° SSE
Iridium 4 Rocket 3.9 20:28:48 13° SSE 20:33:59 63° E 20:39:50 10° N
Cosmos 1271 Rocket 2.7 20:30:49 10° S 20:34:48 90° SSW 20:38:50 10° N
USA 305 3.8 20:31:29 10° WNW 20:35:26 38° SW 20:37:52 20° S
Cosmos 1515 Rocket 4.1 20:31:27 10° SSW 20:35:47 60° W 20:40:08 10° N
Meteor 1-10 Rocket 4.2 20:30:15 10° S 20:35:50 82° E 20:41:34 10° NNE
Cosmos 967 Rocket 4.5 20:30:08 10° SSW 20:36:15 59° ESE 20:42:24 10° NE
Cosmos 2278 Rocket 3.6 20:34:29 10° SW 20:39:47 40° WNW 20:45:08 10° NNE
COSMOS 2406 4.2 20:36:56 10° NW 20:42:14 42° WSW 20:47:21 11° S
Cosmos 990 Rocket 3.9 20:37:34 10° S 20:42:45 70° ESE 20:48:00 10° NNE
Cosmos 1536 3.4 20:39:12 10° N 20:43:01 40° ENE 20:44:24 29° ESE
Cosmos 2369 Rocket 3.4 20:42:46 21° ESE 20:43:36 22° E 20:47:47 10° NE
Cosmos 2228 Rocket 3.0 20:40:35 18° S 20:43:47 67° E 20:48:16 10° NNE
Cosmos 1869 Rocket 3.8 20:40:25 10° N 20:44:39 50° E 20:46:32 29° SE
ATLAS 2AS CENTAUR R/B 2.8 20:39:25 10° NNW 20:46:46 71° NE 20:51:07 24° SE
Cosmos 158 Rocket 4.0 20:42:19 10° NNW 20:47:13 72° WSW 20:50:27 22° S
GPS 2-04 Rocket1 4.5 20:44:31 10° WSW 20:47:23 18° SSW 20:47:58 18° S
Resurs 01 Rocket 2.3 20:44:55 14° S 20:48:32 53° W 20:52:53 10° NNW
Cosmos 1898 Rocket 3.5 20:43:46 10° S 20:48:58 64° ESE 20:54:15 10° NNE
Cosmos 1666 3.2 20:46:23 10° NNW 20:50:02 55° W 20:52:23 20° SSW
USA 306 4.4 20:51:30 10° WNW 20:55:05 27° SW 20:56:52 20° SSW
Tianhe-1 0.9 20:53:06 10° W 20:56:13 76° S 20:56:46 55° ESE
Terra 2.9 20:55:27 24° ESE 20:57:07 30° ENE 21:01:16 10° N
Cosmos 923 Rocket 4.0 20:52:02 10° NNW 20:57:20 85° WSW 21:00:16 27° SSE
Meteor 2-12 Rocket 4.4 20:52:45 10° N 20:58:50 80° E 21:02:32 25° SSE
Cosmos 1707 Rocket 4.1 20:58:16 34° SE 20:59:19 40° E 21:03:28 10° NNE
CARTOSAT-1 3.6 20:59:00 35° SE 21:00:37 62° ENE 21:04:53 10° N
SL-24 R/B - RUBIN 2 3.8 20:58:48 10° NNW 21:04:10 82° NE 21:06:09 36° SE
Cosmos 1818 3.9 20:59:46 10° NNW 21:05:11 57° NE 21:07:40 31° ESE
DNEPR-1 R/B 4.1 21:00:34 10° SSW 21:06:47 90° SE 21:11:54 10° NE
Cosmos 2084 Rocket 3.6 21:02:52 10° NNW 21:07:10 67° NE 21:08:37 40° ESE
Cosmos 1833 Rocket 4.4 21:03:17 10° NW 21:07:49 25° WSW 21:12:20 10° SSW
JB-3 4.1 21:04:58 10° NNE 21:08:50 78° ESE 21:10:01 42° S
CZ-2C R/B 3.2 21:07:35 10° SW 21:08:33 15° SW 21:08:33 15° SW
SJ 16-02 3.9 21:08:26 10° WSW 21:11:55 22° WNW 21:15:24 10° N
RESURS DK-1 4.5 21:11:53 10° N 21:14:33 16° NE 21:15:50 14° ENE
Meteor 1-27 Rocket 4.1 21:17:45 13° SSW 21:22:57 66° WNW 21:28:53 10° N
Cosmos 2341 Rocket 4.2 21:17:41 10° N 21:24:00 57° ENE 21:26:26 36° SE
Cosmos 1743 2.6 21:20:53 10° N 21:24:45 67° E 21:25:04 63° ESE
Milstar 3 4.1 21:13:49 10° WSW 21:27:51 39° SSW 21:31:31 30° SSE
Cosmos 1733 Rocket 3.3 21:24:11 10° N 21:28:23 47° ENE 21:28:47 46° E
ERBS 2.4 21:25:54 10° NW 21:29:01 66° NNE 21:29:01 66° NNE
ERS-1 Rocket 2.9 21:29:16 44° SSE 21:30:55 88° WSW 21:35:58 10° NNW
SL-24 DEB 4.1 21:29:48 51° SSE 21:30:57 83° E 21:35:35 10° N
SPOT 5 3.0 21:30:45 42° S 21:32:35 87° WSW 21:37:57 10° NNW
ARIANE 5 R/B 3.1 21:33:20 37° SSW 21:34:38 52° W 21:38:53 10° NNW
Cosmos 2112 Rocket 4.3 21:30:24 10° NNW 21:35:41 61° WSW 21:37:35 38° SSW
Meteor 1-19 Rocket 4.2 21:35:58 46° SE 21:37:05 55° E 21:42:21 10° NNE
SL-8 Rocket 4.2 21:33:35 10° N 21:39:51 59° E 21:41:47 42° SE
Spot 2 Rocket 4.2 21:38:05 30° SSW 21:40:11 47° W 21:45:03 10° NNW
Meteor 2-4 Rocket 4.5 21:39:42 34° ESE 21:40:12 34° E 21:45:10 10° NNE
Cosmos 1238 Rocket 3.4 21:34:44 10° N 21:40:17 62° E 21:41:08 53° ESE
Cosmos 1937 Rocket 3.9 21:38:08 18° SW 21:41:55 61° WNW 21:47:04 10° NNE
ISS -1.1 21:41:00 10° WNW 21:43:39 21° NNW 21:46:19 10° NE
Gbstr 26 Del rocket 4.0 21:43:41 10° WNW 21:51:15 83° SW 21:53:23 46° SE
Cosmos 1340 Rocket 3.7 21:49:52 10° NNW 21:53:42 40° W 21:54:16 37° WSW
Okean 1 3.3 21:55:06 74° W 21:55:08 74° W 21:59:08 10° N
Cosmos 1515 4.1 21:56:48 55° W 21:56:54 55° W 22:00:38 10° N
Cosmos 1867 3.4 21:56:31 44° SSW 21:58:17 84° ESE 22:03:46 10° NE
H-2A R/B 3.6 21:54:36 10° N 21:58:45 68° WNW 21:59:11 62° WSW
Lacrosse 5 3.6 22:02:09 19° ENE 22:02:09 19° ENE 22:03:53 10° ENE
Cosmos 2082 Rocket 4.2 21:57:11 10° WNW 22:00:52 18° W 22:03:36 13° SW
Cosmos 1943 Rocket 3.1 21:56:25 10° SW 22:01:49 46° WNW 22:07:12 10° NNE
Cosmos 864 Rocket 4.4 21:58:20 10° N 22:04:29 72° E 22:05:51 54° SE
Cosmos 2242 Rocket 4.5 22:05:59 37° ENE 22:05:59 37° ENE 22:09:27 10° NNE
Cosmos 1048 Rocket 4.5 22:00:22 10° N 22:05:28 46° ENE 22:06:10 44° E
Cosmos 1959 Rocket 4.4 22:00:49 10° N 22:07:01 77° E 22:08:24 55° SSE
Okean 1-7 4.1 22:08:56 33° ENE 22:08:56 33° ENE 22:11:56 10° NNE
Cosmos 1656 Rocket 3.5 22:08:33 65° SSE 22:09:03 70° ESE 22:14:35 10° NNE
ATLAS CENTAUR R/B 2.3 22:11:28 36° NNE 22:11:28 36° NNE 22:13:49 10° NNE
Cosmos 1862 Rocket 3.9 22:14:37 53° W 22:14:55 55° W 22:19:10 10° N
Cosmos 1703 Rocket 4.3 22:17:22 44° ENE 22:17:22 44° ENE 22:20:51 10° NNE
SL-27 R/B 4.3 22:13:40 10° N 22:15:31 24° NNE 22:15:31 24° NNE
Cosmos 1607 4.2 22:22:47 27° SW 22:26:30 73° NW 22:33:02 10° NNE
Cosmos 2369 Rocket 2.8 22:24:29 29° SW 22:27:10 54° WNW 22:32:44 10° NNE
Terra 3.1 22:34:20 29° WSW 22:34:49 29° W 22:38:58 10° NW
Cosmos 44 Rocket 3.9 22:30:56 10° NNW 22:36:01 49° NE 22:36:33 47° ENE
Cosmos 2298 Rocket 4.0 22:36:27 72° WSW 22:36:55 79° WNW 22:42:14 10° NNE
ATLAS 2AS CENTAUR R/B 4.1 22:31:32 10° WNW 22:36:57 24° WSW 22:38:33 22° SW
Cosmos 1975 3.8 22:34:12 10° NNW 22:37:19 42° WNW 22:37:19 42° WNW
Cosmos 494 Rocket 4.0 22:35:28 10° NNW 22:40:39 70° ENE 22:40:39 70° ENE
Cosmos 1821 Rocket 4.1 22:35:28 10° N 22:41:51 65° E 22:42:44 58° ESE
Cosmos 2366 rocket 4.3 22:37:12 10° NNW 22:43:15 56° W 22:44:34 47° SW
Cosmos 724 4.2 22:45:27 71° S 22:46:02 79° ESE 22:52:18 10° NE
Gblst 52 Del rocket 4.5 22:42:46 10° WNW 22:49:32 61° SW 22:49:39 61° SW
RESURS DK-1 3.5 22:48:50 10° NW 22:51:42 38° WNW 22:51:42 38° WNW
Okean 3 4.4 22:59:12 45° NNE 22:59:12 45° NNE 23:02:12 10° NNE
Cosmos 1356 Rocket 4.2 22:56:27 10° N 22:59:46 50° NNE 22:59:46 50° NNE
NOSS 2-1 (D) 4.5 23:00:33 10° NNW 23:05:34 65° NE 23:06:38 56° E
ALOS 2 3.2 23:08:32 54° NNE 23:08:32 54° NNE 23:12:03 10° N
Cosmos 1125 Rocket 3.8 23:07:51 55° W 23:08:14 57° WNW 23:13:23 10° NNE
Cosmos 1066 Rocket 4.1 23:09:13 77° E 23:09:13 77° E 23:14:49 10° NNE
Meteor 1-12 Rocket 4.1 23:06:17 10° NNW 23:12:07 84° W 23:12:15 83° SW
Spot 4 4.4 23:17:18 51° WNW 23:17:18 51° WNW 23:21:28 10° NNW
Nimbus 7 Rocket 4.4 23:10:57 10° NNE 23:16:49 64° ESE 23:16:52 64° ESE
Cosmos 2227 Rocket 4.4 23:15:15 10° N 23:19:12 19° NE 23:22:33 12° E
Cosmos 1300 Rocket 4.4 23:15:17 10° N 23:18:37 47° NNE 23:18:37 47° NNE
ISS -0.8 23:19:01 10° NW 23:21:22 17° N 23:22:53 14° NE
Cosmos 2297 Rocket 4.0 23:16:50 10° N 23:21:25 24° NE 23:23:53 19° E
COSMOS 2455 3.9 23:17:32 10° NNW 23:23:09 39° NE 23:25:10 30° E
Meteor 1-15 Rocket 4.2 23:18:59 10° N 23:24:46 77° E 23:24:54 76° E
Nadezhda 3 Rocket 4.2 23:25:32 54° WSW 23:26:25 59° W 23:32:32 10° N
Sich 1 Rocket 4.4 23:35:15 10° NNW 23:38:42 49° NW 23:38:42 49° NW
BREEZE-M DEB (TANK) 4.0 23:31:21 10° WNW 23:41:14 58° WSW 23:41:14 58° WSW
Lacrosse 5 2.7 23:41:17 43° WNW 23:42:12 48° NW 23:47:08 10° NE
Cosmos 1605 Rocket 3.9 23:41:52 10° N 23:48:12 74° E 23:48:50 68° SE
ATLAS CENTAUR R/B 4.2 23:48:26 10° NW 23:49:33 11° NW 23:50:40 10° NNW
Okean 2 Rocket 3.9 23:45:15 10° N 23:48:30 48° NNW 23:48:30 48° NNW
SeaSat 1 3.6 23:45:20 10° NE 23:48:48 33° E 23:48:48 33° E
Cosmos 2151 Rocket 4.3 23:47:26 10° N 23:50:56 53° N 23:50:56 53° N
Resurs 1-4 Rocket 4.4 23:54:01 10° ENE 23:55:58 12° E 23:56:32 12° E
